This demonstration page uses our WeatherBlox Daily Observations layout. Learn more.

41.55636, -103.73856

Hourly Observations for May 30, 2016

Temp ( °F °C ) Dew Point ( °F °C ) Humidity (%) Winds ( mph kmh ) Pressure ( in mb ) Visibility ( mi km ) Precip ( " mm )
12:53 am 00:53 Clear 58 14.4 44 6.7 60 60 SSE 7 11 29.91 1013 10 16.0934 0 0
1:53 am 01:53 Clear 59 15 50 10 72 72 SE 10 17 29.91 1013 10 16.0934 0 0
2:53 am 02:53 Clear 55 12.8 50 10 83 83 ESE 10 17 29.91 1013 10 16.0934 0 0
3:53 am 03:53 Clear 52 11.1 48 8.9 86 86 ESE 7 11 29.9 1012 10 16.0934 0 0
4:53 am 04:53 Clear 51 10.6 47 8.3 86 86 ENE 8 13 29.88 1012 10 16.0934 0 0
5:53 am 05:53 Sunny 49 9.4 46 7.8 90 90 E 3 6 29.88 1012 10 16.0934 0 0
6:53 am 06:53 Sunny 55 12.8 50 10 83 83 N 3 6 29.88 1012 10 16.0934 0 0
7:53 am 07:53 Sunny 60 15.6 51 10.6 72 72 NW 3 6 29.87 1012 10 16.0934 0 0
8:53 am 08:53 Sunny 67 19.4 49 9.4 53 53 VRB 5 7 29.88 1012 10 16.0934 0 0
9:53 am 09:53 Sunny 72 22.2 49 9.4 44 44 NW 5 7 29.85 1011 10 16.0934 0 0
10:53 am 10:53 Sunny 75 23.9 48 8.9 39 39 WNW 9 15 29.85 1011 10 16.0934 0 0
11:53 am 11:53 Sunny 79 26.1 43 6.1 28 28 NW 16 26 29.81 1010 10 16.0934 0 0
12:53 pm 12:53 Sunny 79 26.1 45 7.2 30 30 WNW 10 17 29.8 1009 10 16.0934 0 0
1:53 pm 13:53 Sunny 75 23.9 42 5.6 31 31 W 15 24 29.81 1009 10 16.0934 0 0
2:53 pm 14:53 Mostly Cloudy 73 22.8 41 5 32 32 SW 13 20 29.83 1010 10 16.0934 0 0
3:53 pm 15:53 Partly Cloudy 67 19.4 45 7.2 45 45 SSW 13 20 29.84 1011 10 16.0934 0 0.0254
4:53 pm 16:53 Sunny 71 21.7 44 6.7 38 38 SW 9 15 29.8 1009 10 16.0934 0 0
5:13 pm 17:13 Partly Cloudy with Nearby Thunderstorms 70 21.1 45 7.2 41 41 WSW 10 17 29.74 1007 10 16.0934 0 0
5:28 pm 17:28 Mostly Cloudy with Light Rain 68 20 46 8 46 46 N 18 30 29.74 1007 10 16.0934 0 0
5:53 pm 17:53 Partly Cloudy 71 21.7 46 7.8 41 41 SW 8 13 29.83 1010 10 16.0934 0 0.0254
6:53 pm 18:53 Sunny 69 20.6 48 8.9 47 47 W 5 7 29.83 1010 10 16.0934 0 0
7:53 pm 19:53 Sunny 65 18.3 46 7.8 51 51 NW 7 11 29.83 1010 10 16.0934 0 0
8:53 pm 20:53 Clear 59 15 49 9.4 69 69 N 16 26 29.87 1012 10 16.0934 0 0
9:41 pm 21:41 Cloudy with Light Thunderstorms 59 15 46 7.8 62 62 NNW 14 22 29.91 1013 10 16.0934 0 0.0254
9:53 pm 21:53 Cloudy with Light Thunderstorms 56 13.3 48 8.9 75 75 N 14 22 29.95 1014 10 16.0934 0.01 0.254
10:01 pm 22:01 Cloudy with Light Rain 56 13.3 47 8.3 72 72 N 17 28 29.94 1014 10 16.0934 0 0.0254
10:53 pm 22:53 Cloudy 55 12.8 46 7.8 72 72 NW 6 9 30 1016 10 16.0934 0 0.0254
11:53 pm 23:53 Cloudy 54 12.2 46 7.8 75 75 NNW 6 9 29.99 1016 10 16.0934 0 0.0254

Powered by AerisWeather